Year,Month,Day,Hour,Minute,Value (Times are PST for temperature in C)
2014,05,20,00,00,14.10
2014,05,20,00,01,14.10
2014,05,20,00,02,14.10
2014,05,20,00,03,14.10
2014,05,20,00,04,14.10
2014,05,20,00,05,14.00
2014,05,20,00,06,14.00
2014,05,20,00,07,14.00
2014,05,20,00,08,14.00
2014,05,20,00,09,14.00
2014,05,20,00,10,13.90
2014,05,20,00,11,13.90
2014,05,20,00,12,13.90
2014,05,20,00,13,13.90
2014,05,20,00,14,13.90
2014,05,20,00,15,13.90
2014,05,20,00,16,13.90
2014,05,20,00,17,13.90
2014,05,20,00,18,13.80
2014,05,20,00,19,13.80
2014,05,20,00,20,13.80
2014,05,20,00,21,13.80
2014,05,20,00,22,13.80
2014,05,20,00,23,13.80
2014,05,20,00,24,13.80
2014,05,20,00,25,13.80
2014,05,20,00,26,13.80
2014,05,20,00,27,13.80
2014,05,20,00,28,13.80
2014,05,20,00,29,13.80
2014,05,20,00,30,13.80
2014,05,20,00,31,13.80
2014,05,20,00,32,13.80
2014,05,20,00,33,13.80
2014,05,20,00,34,13.80
2014,05,20,00,35,13.80
2014,05,20,00,36,13.90
2014,05,20,00,37,13.90
2014,05,20,00,38,13.90
2014,05,20,00,39,13.90
2014,05,20,00,40,13.90
2014,05,20,00,41,13.90
2014,05,20,00,42,13.90
2014,05,20,00,43,13.90
2014,05,20,00,44,13.90
2014,05,20,00,45,13.90
2014,05,20,00,46,13.90
2014,05,20,00,47,13.80
2014,05,20,00,48,13.90
2014,05,20,00,49,13.80
2014,05,20,00,50,13.80
2014,05,20,00,51,13.80
2014,05,20,00,52,13.80
2014,05,20,00,53,13.80
2014,05,20,00,54,13.80
2014,05,20,00,55,13.80
2014,05,20,00,56,13.80
2014,05,20,00,57,13.80
2014,05,20,00,58,13.80
2014,05,20,00,59,13.80
2014,05,20,01,00,13.80
2014,05,20,01,01,13.80
2014,05,20,01,02,13.80
2014,05,20,01,03,13.80
2014,05,20,01,04,13.80
2014,05,20,01,05,13.80
2014,05,20,01,06,13.80
2014,05,20,01,07,13.70
2014,05,20,01,08,13.70
2014,05,20,01,09,13.70
2014,05,20,01,10,13.70
2014,05,20,01,11,13.70
2014,05,20,01,12,13.70
2014,05,20,01,13,13.70
2014,05,20,01,14,13.70
2014,05,20,01,15,13.70
2014,05,20,01,16,13.70
2014,05,20,01,17,13.70
2014,05,20,01,18,13.70
2014,05,20,01,19,13.70
2014,05,20,01,20,13.70
2014,05,20,01,21,13.70
2014,05,20,01,22,13.60
2014,05,20,01,23,13.60
2014,05,20,01,24,13.60
2014,05,20,01,25,13.60
2014,05,20,01,26,13.60
2014,05,20,01,27,13.60
2014,05,20,01,28,13.60
2014,05,20,01,29,13.60
2014,05,20,01,30,13.60
2014,05,20,01,31,13.60
2014,05,20,01,32,13.60
2014,05,20,01,33,13.60
2014,05,20,01,34,13.60
2014,05,20,01,35,13.60
2014,05,20,01,36,13.60
2014,05,20,01,37,13.60
2014,05,20,01,38,13.60
2014,05,20,01,39,13.60
2014,05,20,01,40,13.60
2014,05,20,01,41,13.50
2014,05,20,01,42,13.50
2014,05,20,01,43,13.50
2014,05,20,01,44,13.50
2014,05,20,01,45,13.50
2014,05,20,01,46,13.50
2014,05,20,01,47,13.50
2014,05,20,01,48,13.50
2014,05,20,01,49,13.50
2014,05,20,01,50,13.50
2014,05,20,01,51,13.40
2014,05,20,01,52,13.40
2014,05,20,01,53,13.40
2014,05,20,01,54,13.40
2014,05,20,01,55,13.40
2014,05,20,01,56,13.40
2014,05,20,01,57,13.40
2014,05,20,01,58,13.40
2014,05,20,01,59,13.40
2014,05,20,02,00,13.40
2014,05,20,02,01,13.40
2014,05,20,02,02,13.40
2014,05,20,02,03,13.40
2014,05,20,02,04,13.40
2014,05,20,02,05,13.40
2014,05,20,02,06,13.40
2014,05,20,02,07,13.40
2014,05,20,02,08,13.40
2014,05,20,02,09,13.40
2014,05,20,02,10,13.40
2014,05,20,02,11,13.40
2014,05,20,02,12,13.40
2014,05,20,02,13,13.40
2014,05,20,02,14,13.40
2014,05,20,02,15,13.30
2014,05,20,02,16,13.30
2014,05,20,02,17,13.30
2014,05,20,02,18,13.30
2014,05,20,02,19,13.30
2014,05,20,02,20,13.30
2014,05,20,02,21,13.30
2014,05,20,02,22,13.30
2014,05,20,02,23,13.30
2014,05,20,02,24,13.30
2014,05,20,02,25,13.30
2014,05,20,02,26,13.30
2014,05,20,02,27,13.30
2014,05,20,02,28,13.20
2014,05,20,02,29,13.20
2014,05,20,02,30,13.20
2014,05,20,02,31,13.20
2014,05,20,02,32,13.20
2014,05,20,02,33,13.20
2014,05,20,02,34,13.20
2014,05,20,02,35,13.20
2014,05,20,02,36,13.20
2014,05,20,02,37,13.20
2014,05,20,02,38,13.20
2014,05,20,02,39,13.20
2014,05,20,02,40,13.20
2014,05,20,02,41,13.20
2014,05,20,02,42,13.20
2014,05,20,02,43,13.20
2014,05,20,02,44,13.20
2014,05,20,02,45,13.20
2014,05,20,02,46,13.20
2014,05,20,02,47,13.20
2014,05,20,02,48,13.20
2014,05,20,02,49,13.10
2014,05,20,02,50,13.10
2014,05,20,02,51,13.10
2014,05,20,02,52,13.10
2014,05,20,02,53,13.10
2014,05,20,02,54,13.10
2014,05,20,02,55,13.10
2014,05,20,02,56,13.10
2014,05,20,02,57,13.10
2014,05,20,02,58,13.10
2014,05,20,02,59,13.10
2014,05,20,03,00,13.10
2014,05,20,03,01,13.10
2014,05,20,03,02,13.10
2014,05,20,03,03,13.10
2014,05,20,03,04,13.10
2014,05,20,03,05,13.10
2014,05,20,03,06,13.10
2014,05,20,03,07,13.10
2014,05,20,03,08,13.10
2014,05,20,03,09,13.10
2014,05,20,03,10,13.10
2014,05,20,03,11,13.10
2014,05,20,03,12,13.10
2014,05,20,03,13,13.00
2014,05,20,03,14,13.00
2014,05,20,03,15,13.00
2014,05,20,03,16,13.00
2014,05,20,03,17,13.00
2014,05,20,03,18,13.00
2014,05,20,03,19,13.00
2014,05,20,03,20,13.00
2014,05,20,03,21,12.90
2014,05,20,03,22,12.90
2014,05,20,03,23,12.90
2014,05,20,03,24,12.90
2014,05,20,03,25,12.90
2014,05,20,03,26,12.90
2014,05,20,03,27,12.90
2014,05,20,03,28,12.90
2014,05,20,03,29,12.90
2014,05,20,03,30,12.90
2014,05,20,03,31,12.80
2014,05,20,03,32,12.80
2014,05,20,03,33,12.80
2014,05,20,03,34,12.80
2014,05,20,03,35,12.80
2014,05,20,03,36,12.80
2014,05,20,03,37,12.80
2014,05,20,03,38,12.80
2014,05,20,03,39,12.80
2014,05,20,03,40,12.80
2014,05,20,03,41,12.70
2014,05,20,03,42,12.70
2014,05,20,03,43,12.70
2014,05,20,03,44,12.70
2014,05,20,03,45,12.70
2014,05,20,03,46,12.70
2014,05,20,03,47,12.70
2014,05,20,03,48,12.70
2014,05,20,03,49,12.70
2014,05,20,03,50,12.70
2014,05,20,03,51,12.70
2014,05,20,03,52,12.70
2014,05,20,03,53,12.70
2014,05,20,03,54,12.70
2014,05,20,03,55,12.70
2014,05,20,03,56,12.70
2014,05,20,03,57,12.60
2014,05,20,03,58,12.60
2014,05,20,03,59,12.60
2014,05,20,04,00,12.60
2014,05,20,04,01,12.60
2014,05,20,04,02,12.60
2014,05,20,04,03,12.60
2014,05,20,04,04,12.60
2014,05,20,04,05,12.60
2014,05,20,04,06,12.60
2014,05,20,04,07,12.60
2014,05,20,04,08,12.60
2014,05,20,04,09,12.60
2014,05,20,04,10,12.60
2014,05,20,04,11,12.60
2014,05,20,04,12,12.50
2014,05,20,04,13,12.50
2014,05,20,04,14,12.50
2014,05,20,04,15,12.50
2014,05,20,04,16,12.60
2014,05,20,04,17,12.50
2014,05,20,04,18,12.50
2014,05,20,04,19,12.50
2014,05,20,04,20,12.50
2014,05,20,04,21,12.50
2014,05,20,04,22,12.50
2014,05,20,04,23,12.50
2014,05,20,04,24,12.50
2014,05,20,04,25,12.50
2014,05,20,04,26,12.50
2014,05,20,04,27,12.50
2014,05,20,04,28,12.50
2014,05,20,04,29,12.50
2014,05,20,04,30,12.50
2014,05,20,04,31,12.50
2014,05,20,04,32,12.50
2014,05,20,04,33,12.50
2014,05,20,04,34,12.40
2014,05,20,04,35,12.40
2014,05,20,04,36,12.40
2014,05,20,04,37,12.40
2014,05,20,04,38,12.40
2014,05,20,04,39,12.40
2014,05,20,04,40,12.40
2014,05,20,04,41,12.40
2014,05,20,04,42,12.40
2014,05,20,04,43,12.40
2014,05,20,04,44,12.40
2014,05,20,04,45,12.40
2014,05,20,04,46,12.30
2014,05,20,04,47,12.30
2014,05,20,04,48,12.30
2014,05,20,04,49,12.30
2014,05,20,04,50,12.30
2014,05,20,04,51,12.30
2014,05,20,04,52,12.30
2014,05,20,04,53,12.30
2014,05,20,04,54,12.30
2014,05,20,04,55,12.30
2014,05,20,04,56,12.20
2014,05,20,04,57,12.20
2014,05,20,04,58,12.20
2014,05,20,04,59,12.20
2014,05,20,05,00,12.10
2014,05,20,05,01,12.10
2014,05,20,05,02,12.10
2014,05,20,05,03,12.00
2014,05,20,05,04,12.00
2014,05,20,05,05,12.00
2014,05,20,05,06,11.90
2014,05,20,05,07,11.90
2014,05,20,05,08,11.90
2014,05,20,05,09,11.80
2014,05,20,05,10,11.80
2014,05,20,05,11,11.80
2014,05,20,05,12,11.80
2014,05,20,05,13,11.80
2014,05,20,05,14,11.80
2014,05,20,05,15,11.80
2014,05,20,05,16,11.80
2014,05,20,05,17,11.80
2014,05,20,05,18,11.80
2014,05,20,05,19,11.80
2014,05,20,05,20,11.80
2014,05,20,05,21,11.80
2014,05,20,05,22,11.80
2014,05,20,05,23,11.80
2014,05,20,05,24,11.80
2014,05,20,05,25,11.80
2014,05,20,05,26,11.80
2014,05,20,05,27,11.80
2014,05,20,05,28,11.70
2014,05,20,05,29,11.70
2014,05,20,05,30,11.70
2014,05,20,05,31,11.70
2014,05,20,05,32,11.70
2014,05,20,05,33,11.70
2014,05,20,05,34,11.70
2014,05,20,05,35,11.60
2014,05,20,05,36,11.60
2014,05,20,05,37,11.60
2014,05,20,05,38,11.60
2014,05,20,05,39,11.50
2014,05,20,05,40,11.50
2014,05,20,05,41,11.40
2014,05,20,05,42,11.40
2014,05,20,05,43,11.40
2014,05,20,05,44,11.40
2014,05,20,05,45,11.40
2014,05,20,05,46,11.30
2014,05,20,05,47,11.30
2014,05,20,05,48,11.30
2014,05,20,05,49,11.30
2014,05,20,05,50,11.30
2014,05,20,05,51,11.20
2014,05,20,05,52,11.20
2014,05,20,05,53,11.20
2014,05,20,05,54,11.20
2014,05,20,05,55,11.20
2014,05,20,05,56,11.10
2014,05,20,05,57,11.10
2014,05,20,05,58,11.10
2014,05,20,05,59,11.10
2014,05,20,06,00,11.10
2014,05,20,06,01,11.10
2014,05,20,06,02,11.10
2014,05,20,06,03,11.10
2014,05,20,06,04,11.10
2014,05,20,06,05,11.10
2014,05,20,06,06,11.10
2014,05,20,06,07,11.10
2014,05,20,06,08,11.10
2014,05,20,06,09,11.10
2014,05,20,06,10,11.10
2014,05,20,06,11,11.10
2014,05,20,06,12,11.10
2014,05,20,06,13,11.10
2014,05,20,06,14,11.20
2014,05,20,06,15,11.20
2014,05,20,06,16,11.20
2014,05,20,06,17,11.20
2014,05,20,06,18,11.20
2014,05,20,06,19,11.20
2014,05,20,06,20,11.20
2014,05,20,06,21,11.30
2014,05,20,06,22,11.30
2014,05,20,06,23,11.30
2014,05,20,06,24,11.30
2014,05,20,06,25,11.30
2014,05,20,06,26,11.40
2014,05,20,06,27,11.40
2014,05,20,06,28,11.40
2014,05,20,06,29,11.50
2014,05,20,06,30,11.50
2014,05,20,06,31,11.60
2014,05,20,06,32,11.60
2014,05,20,06,33,11.60
2014,05,20,06,34,11.70
2014,05,20,06,35,11.70
2014,05,20,06,36,11.70
2014,05,20,06,37,11.70
2014,05,20,06,38,11.80
2014,05,20,06,39,11.80
2014,05,20,06,40,11.80
2014,05,20,06,41,11.90
2014,05,20,06,42,11.90
2014,05,20,06,43,12.00
2014,05,20,06,44,12.00
2014,05,20,06,45,12.10
2014,05,20,06,46,12.10
2014,05,20,06,47,12.20
2014,05,20,06,48,12.20
2014,05,20,06,49,12.30
2014,05,20,06,50,12.30
2014,05,20,06,51,12.40
2014,05,20,06,52,12.40
2014,05,20,06,53,12.50
2014,05,20,06,54,12.50
2014,05,20,06,55,12.60
2014,05,20,06,56,12.60
2014,05,20,06,57,12.70
2014,05,20,06,58,12.80
2014,05,20,06,59,12.80
2014,05,20,07,00,12.90
2014,05,20,07,01,12.90
2014,05,20,07,02,13.00
2014,05,20,07,03,13.10
2014,05,20,07,04,13.10
2014,05,20,07,05,13.20
2014,05,20,07,06,13.30
2014,05,20,07,07,13.30
2014,05,20,07,08,13.40
2014,05,20,07,09,13.40
2014,05,20,07,10,13.50
2014,05,20,07,11,13.60
2014,05,20,07,12,13.60
2014,05,20,07,13,13.70
2014,05,20,07,14,13.70
2014,05,20,07,15,13.80
2014,05,20,07,16,13.80
2014,05,20,07,17,13.90
2014,05,20,07,18,14.00
2014,05,20,07,19,14.00
2014,05,20,07,20,14.10
2014,05,20,07,21,14.10
2014,05,20,07,22,14.10
2014,05,20,07,23,14.20
2014,05,20,07,24,14.20
2014,05,20,07,25,14.30
2014,05,20,07,26,14.30
2014,05,20,07,27,14.40
2014,05,20,07,28,14.40
2014,05,20,07,29,14.50
2014,05,20,07,30,14.50
2014,05,20,07,31,14.60
2014,05,20,07,32,14.70
2014,05,20,07,33,14.70
2014,05,20,07,34,14.70
2014,05,20,07,35,14.80
2014,05,20,07,36,14.80
2014,05,20,07,37,14.80
2014,05,20,07,38,14.80
2014,05,20,07,39,14.90
2014,05,20,07,40,14.90
2014,05,20,07,41,15.00
2014,05,20,07,42,15.00
2014,05,20,07,43,15.10
2014,05,20,07,44,15.10
2014,05,20,07,45,15.20
2014,05,20,07,46,15.20
2014,05,20,07,47,15.30
2014,05,20,07,48,15.30
2014,05,20,07,49,15.30
2014,05,20,07,50,15.30
2014,05,20,07,51,15.30
2014,05,20,07,52,15.30
2014,05,20,07,53,15.40
2014,05,20,07,54,15.40
2014,05,20,07,55,15.40
2014,05,20,07,56,15.50
2014,05,20,07,57,15.50
2014,05,20,07,58,15.60
2014,05,20,07,59,15.60
2014,05,20,08,00,15.60
2014,05,20,08,01,15.60
2014,05,20,08,02,15.60
2014,05,20,08,03,15.70
2014,05,20,08,04,15.70
2014,05,20,08,05,15.80
2014,05,20,08,06,15.80
2014,05,20,08,07,15.90
2014,05,20,08,08,15.90
2014,05,20,08,09,16.00
2014,05,20,08,10,16.00
2014,05,20,08,11,16.00
2014,05,20,08,12,15.90
2014,05,20,08,13,15.80
2014,05,20,08,14,15.70
2014,05,20,08,15,15.70
2014,05,20,08,16,15.70
2014,05,20,08,17,15.70
2014,05,20,08,18,15.70
2014,05,20,08,19,15.70
2014,05,20,08,20,15.70
2014,05,20,08,21,15.70
2014,05,20,08,22,15.70
2014,05,20,08,23,15.70
2014,05,20,08,24,15.70
2014,05,20,08,25,15.70
2014,05,20,08,26,15.70
2014,05,20,08,27,15.70
2014,05,20,08,28,15.80
2014,05,20,08,29,15.80
2014,05,20,08,30,15.80
2014,05,20,08,31,15.90
2014,05,20,08,32,16.00
2014,05,20,08,33,16.00
2014,05,20,08,34,16.10
2014,05,20,08,35,16.10
2014,05,20,08,36,16.10
2014,05,20,08,37,16.00
2014,05,20,08,38,16.00
2014,05,20,08,39,15.90
2014,05,20,08,40,15.90
2014,05,20,08,41,15.80
2014,05,20,08,42,15.80
2014,05,20,08,43,15.80
2014,05,20,08,44,15.80
2014,05,20,08,45,15.80
2014,05,20,08,46,15.80
2014,05,20,08,47,15.80
2014,05,20,08,48,15.80
2014,05,20,08,49,15.80
2014,05,20,08,50,15.80
2014,05,20,08,51,15.80
2014,05,20,08,52,15.90
2014,05,20,08,53,16.00
2014,05,20,08,54,16.00
2014,05,20,08,55,16.10
2014,05,20,08,56,16.10
2014,05,20,08,57,16.00
2014,05,20,08,58,16.00
2014,05,20,08,59,16.00
2014,05,20,09,00,16.00
2014,05,20,09,01,16.00
2014,05,20,09,02,16.00
2014,05,20,09,03,15.90
2014,05,20,09,04,15.90
2014,05,20,09,05,15.90
2014,05,20,09,06,16.00
2014,05,20,09,07,16.10
2014,05,20,09,08,16.10
2014,05,20,09,09,16.10
2014,05,20,09,10,16.10
2014,05,20,09,11,16.20
2014,05,20,09,12,16.30
2014,05,20,09,13,16.30
2014,05,20,09,14,16.40
2014,05,20,09,15,16.40
2014,05,20,09,16,16.40
2014,05,20,09,17,16.40
2014,05,20,09,18,16.40
2014,05,20,09,19,16.50
2014,05,20,09,20,16.60
2014,05,20,09,21,16.60
2014,05,20,09,22,16.70
2014,05,20,09,23,16.70
2014,05,20,09,24,16.80
2014,05,20,09,25,16.80
2014,05,20,09,26,16.80
2014,05,20,09,27,16.80
2014,05,20,09,28,16.80
2014,05,20,09,29,16.70
2014,05,20,09,30,16.70
2014,05,20,09,31,16.80
2014,05,20,09,32,16.70
2014,05,20,09,33,16.70
2014,05,20,09,34,16.70
2014,05,20,09,35,16.70
2014,05,20,09,36,16.80
2014,05,20,09,37,16.80
2014,05,20,09,38,16.80
2014,05,20,09,39,16.90
2014,05,20,09,40,16.90
2014,05,20,09,41,17.00
2014,05,20,09,42,17.00
2014,05,20,09,43,17.00
2014,05,20,09,44,17.00
2014,05,20,09,45,17.10
2014,05,20,09,46,17.00
2014,05,20,09,47,17.10
2014,05,20,09,48,17.10
2014,05,20,09,49,17.10
2014,05,20,09,50,17.20
2014,05,20,09,51,17.20
2014,05,20,09,52,17.20
2014,05,20,09,53,17.20
2014,05,20,09,54,17.20
2014,05,20,09,55,17.30
2014,05,20,09,56,17.40
2014,05,20,09,57,17.40
2014,05,20,09,58,17.50
2014,05,20,09,59,17.60
2014,05,20,10,00,17.60
2014,05,20,10,01,17.70
2014,05,20,10,02,17.70
2014,05,20,10,03,17.80
2014,05,20,10,04,17.80
2014,05,20,10,05,17.80
2014,05,20,10,06,17.80
2014,05,20,10,07,17.90
2014,05,20,10,08,17.90
2014,05,20,10,09,17.90
2014,05,20,10,10,17.90
2014,05,20,10,11,17.90
2014,05,20,10,12,17.90
2014,05,20,10,13,18.00
2014,05,20,10,14,18.00
2014,05,20,10,15,18.00
2014,05,20,10,16,18.00
2014,05,20,10,17,18.00
2014,05,20,10,18,18.00
2014,05,20,10,19,18.00
2014,05,20,10,20,18.00
2014,05,20,10,21,17.90
2014,05,20,10,22,17.90
2014,05,20,10,23,17.80
2014,05,20,10,24,17.80
2014,05,20,10,25,17.80
2014,05,20,10,26,17.70
2014,05,20,10,27,17.60
2014,05,20,10,28,17.60
2014,05,20,10,29,17.60
2014,05,20,10,30,17.70
2014,05,20,10,31,17.80
2014,05,20,10,32,17.90
2014,05,20,10,33,18.00
2014,05,20,10,34,18.00
2014,05,20,10,35,18.10
2014,05,20,10,36,18.10
2014,05,20,10,37,18.10
2014,05,20,10,38,18.10
2014,05,20,10,39,18.20
2014,05,20,10,40,18.20
2014,05,20,10,41,18.30
2014,05,20,10,42,18.30
2014,05,20,10,43,18.40
2014,05,20,10,44,18.40
2014,05,20,10,45,18.40
2014,05,20,10,46,18.30
2014,05,20,10,47,18.30
2014,05,20,10,48,18.20
2014,05,20,10,49,18.20
2014,05,20,10,50,18.10
2014,05,20,10,51,18.00
2014,05,20,10,52,18.00
2014,05,20,10,53,18.10
2014,05,20,10,54,18.20
2014,05,20,10,55,18.20
2014,05,20,10,56,18.20
2014,05,20,10,57,18.20
2014,05,20,10,58,18.20
2014,05,20,10,59,18.10
2014,05,20,11,00,18.10
2014,05,20,11,01,18.00
2014,05,20,11,02,17.90
2014,05,20,11,03,17.80
2014,05,20,11,04,17.80
2014,05,20,11,05,17.80
2014,05,20,11,06,17.80
2014,05,20,11,07,17.80
2014,05,20,11,08,18.00
2014,05,20,11,09,18.10
2014,05,20,11,10,18.20
2014,05,20,11,11,18.20
2014,05,20,11,12,18.30
2014,05,20,11,13,18.30
2014,05,20,11,14,18.30
2014,05,20,11,15,18.40
2014,05,20,11,16,18.40
2014,05,20,11,17,18.40
2014,05,20,11,18,18.40
2014,05,20,11,19,18.40
2014,05,20,11,20,18.40
2014,05,20,11,21,18.40
2014,05,20,11,22,18.40
2014,05,20,11,23,18.40
2014,05,20,11,24,18.40
2014,05,20,11,25,18.40
2014,05,20,11,26,18.40
2014,05,20,11,27,18.40
2014,05,20,11,28,18.30
2014,05,20,11,29,18.20
2014,05,20,11,30,18.10
2014,05,20,11,31,18.10
2014,05,20,11,32,18.10
2014,05,20,11,33,18.20
2014,05,20,11,34,18.30
2014,05,20,11,35,18.40
2014,05,20,11,36,18.40
2014,05,20,11,37,18.40
2014,05,20,11,38,18.50
2014,05,20,11,39,18.60
2014,05,20,11,40,18.70
2014,05,20,11,41,18.70
2014,05,20,11,42,18.80
2014,05,20,11,43,18.70
2014,05,20,11,44,18.70
2014,05,20,11,45,18.50
2014,05,20,11,46,18.40
2014,05,20,11,47,18.40
2014,05,20,11,48,18.30
2014,05,20,11,49,18.10
2014,05,20,11,50,18.00
2014,05,20,11,51,18.00
2014,05,20,11,52,18.10
2014,05,20,11,53,18.20
2014,05,20,11,54,18.30
2014,05,20,11,55,18.30
2014,05,20,11,56,18.30
2014,05,20,11,57,18.40
2014,05,20,11,58,18.40
2014,05,20,11,59,18.40
2014,05,20,12,00,18.20
2014,05,20,12,01,18.10
2014,05,20,12,02,18.00
2014,05,20,12,03,17.90
2014,05,20,12,04,17.80
2014,05,20,12,05,17.70
2014,05,20,12,06,17.80
2014,05,20,12,07,17.80
2014,05,20,12,08,17.70
2014,05,20,12,09,17.70
2014,05,20,12,10,17.70
2014,05,20,12,11,17.80
2014,05,20,12,12,17.90
2014,05,20,12,13,18.10
2014,05,20,12,14,18.30
2014,05,20,12,15,18.50
2014,05,20,12,16,18.60
2014,05,20,12,17,18.70
2014,05,20,12,18,18.80
2014,05,20,12,19,18.80
2014,05,20,12,20,18.80
2014,05,20,12,21,18.70
2014,05,20,12,22,18.70
2014,05,20,12,23,18.70
2014,05,20,12,24,18.80
2014,05,20,12,25,18.80
2014,05,20,12,26,18.80
2014,05,20,12,27,18.80
2014,05,20,12,28,18.70
2014,05,20,12,29,18.70
2014,05,20,12,30,18.70
2014,05,20,12,31,18.80
2014,05,20,12,32,18.80
2014,05,20,12,33,18.80
2014,05,20,12,34,18.90
2014,05,20,12,35,18.90
2014,05,20,12,36,19.00
2014,05,20,12,37,19.00
2014,05,20,12,38,18.90
2014,05,20,12,39,18.90
2014,05,20,12,40,19.00
2014,05,20,12,41,19.10
2014,05,20,12,42,19.20
2014,05,20,12,43,19.20
2014,05,20,12,44,19.20
2014,05,20,12,45,19.20
2014,05,20,12,46,19.20
2014,05,20,12,47,19.30
2014,05,20,12,48,19.30
2014,05,20,12,49,19.30
2014,05,20,12,50,19.40
2014,05,20,12,51,19.40
2014,05,20,12,52,19.50
2014,05,20,12,53,19.50
2014,05,20,12,54,19.50
2014,05,20,12,55,19.60
2014,05,20,12,56,19.60
2014,05,20,12,57,19.50
2014,05,20,12,58,19.50
2014,05,20,12,59,19.60
2014,05,20,13,00,19.60
2014,05,20,13,01,19.70
2014,05,20,13,02,19.70
2014,05,20,13,03,19.80
2014,05,20,13,04,19.80
2014,05,20,13,05,19.80
2014,05,20,13,06,19.80
2014,05,20,13,07,19.80
2014,05,20,13,08,19.90
2014,05,20,13,09,19.90
2014,05,20,13,10,19.90
2014,05,20,13,11,19.90
2014,05,20,13,12,19.90
2014,05,20,13,13,19.80
2014,05,20,13,14,19.70
2014,05,20,13,15,19.70
2014,05,20,13,16,19.70
2014,05,20,13,17,19.70
2014,05,20,13,18,19.70
2014,05,20,13,19,19.70
2014,05,20,13,20,19.70
2014,05,20,13,21,19.80
2014,05,20,13,22,19.80
2014,05,20,13,23,19.80
2014,05,20,13,24,19.80
2014,05,20,13,25,19.80
2014,05,20,13,26,19.80
2014,05,20,13,27,19.90
2014,05,20,13,28,19.90
2014,05,20,13,29,19.90
2014,05,20,13,30,19.90
2014,05,20,13,31,19.90
2014,05,20,13,32,20.00
2014,05,20,13,33,20.10
2014,05,20,13,34,20.20
2014,05,20,13,35,20.30
2014,05,20,13,36,20.40
2014,05,20,13,37,20.40
2014,05,20,13,38,20.40
2014,05,20,13,39,20.40
2014,05,20,13,40,20.30
2014,05,20,13,41,20.30
2014,05,20,13,42,20.30
2014,05,20,13,43,20.30
2014,05,20,13,44,20.30
2014,05,20,13,45,20.20
2014,05,20,13,46,20.20
2014,05,20,13,47,20.20
2014,05,20,13,48,20.20
2014,05,20,13,49,20.20
2014,05,20,13,50,20.20
2014,05,20,13,51,20.20
2014,05,20,13,52,20.20
2014,05,20,13,53,20.20
2014,05,20,13,54,20.20
2014,05,20,13,55,20.20
2014,05,20,13,56,20.20
2014,05,20,13,57,20.20
2014,05,20,13,58,20.20
2014,05,20,13,59,20.20
2014,05,20,14,00,20.20
2014,05,20,14,01,20.30
2014,05,20,14,02,20.20
2014,05,20,14,03,20.10
2014,05,20,14,04,20.00
2014,05,20,14,05,19.90
2014,05,20,14,06,19.90
2014,05,20,14,07,19.90
2014,05,20,14,08,20.00
2014,05,20,14,09,20.20
2014,05,20,14,10,20.30
2014,05,20,14,11,20.30
2014,05,20,14,12,20.40
2014,05,20,14,13,20.40
2014,05,20,14,14,20.30
2014,05,20,14,15,20.30
2014,05,20,14,16,20.20
2014,05,20,14,17,20.10
2014,05,20,14,18,19.90
2014,05,20,14,19,19.70
2014,05,20,14,20,19.60
2014,05,20,14,21,19.60
2014,05,20,14,22,19.70
2014,05,20,14,23,19.80
2014,05,20,14,24,20.00
2014,05,20,14,25,20.10
2014,05,20,14,26,20.10
2014,05,20,14,27,20.20
2014,05,20,14,28,20.20
2014,05,20,14,29,20.20
2014,05,20,14,30,20.30
2014,05,20,14,31,20.30
2014,05,20,14,32,20.40
2014,05,20,14,33,20.40
2014,05,20,14,34,20.50
2014,05,20,14,35,20.60
2014,05,20,14,36,20.70
2014,05,20,14,37,20.80
2014,05,20,14,38,20.80
2014,05,20,14,39,20.80
2014,05,20,14,40,20.80
2014,05,20,14,41,20.70
2014,05,20,14,42,20.80
2014,05,20,14,43,20.80
2014,05,20,14,44,20.90
2014,05,20,14,45,20.90
2014,05,20,14,46,20.90
2014,05,20,14,47,20.90
2014,05,20,14,48,20.80
2014,05,20,14,49,20.80
2014,05,20,14,50,20.80
2014,05,20,14,51,20.90
2014,05,20,14,52,20.90
2014,05,20,14,53,20.90
2014,05,20,14,54,20.90
2014,05,20,14,55,20.90
2014,05,20,14,56,21.00
2014,05,20,14,57,21.10
2014,05,20,14,58,21.10
2014,05,20,14,59,21.20
2014,05,20,15,00,21.30
2014,05,20,15,01,21.20
2014,05,20,15,02,21.10
2014,05,20,15,03,21.10
2014,05,20,15,04,21.10
2014,05,20,15,05,21.20
2014,05,20,15,06,21.20
2014,05,20,15,07,21.20
2014,05,20,15,08,21.30
2014,05,20,15,09,21.30
2014,05,20,15,10,21.10
2014,05,20,15,11,21.00
2014,05,20,15,12,20.90
2014,05,20,15,13,20.90
2014,05,20,15,14,21.00
2014,05,20,15,15,21.00
2014,05,20,15,16,21.10
2014,05,20,15,17,21.20
2014,05,20,15,18,21.30
2014,05,20,15,19,21.40
2014,05,20,15,20,21.40
2014,05,20,15,21,21.40
2014,05,20,15,22,21.30
2014,05,20,15,23,21.10
2014,05,20,15,24,21.00
2014,05,20,15,25,20.90
2014,05,20,15,26,20.90
2014,05,20,15,27,20.90
2014,05,20,15,28,20.90
2014,05,20,15,29,20.90
2014,05,20,15,30,20.90
2014,05,20,15,31,20.90
2014,05,20,15,32,20.90
2014,05,20,15,33,20.90
2014,05,20,15,34,20.90
2014,05,20,15,35,20.90
2014,05,20,15,36,20.90
2014,05,20,15,37,20.90
2014,05,20,15,38,20.90
2014,05,20,15,39,20.80
2014,05,20,15,40,20.80
2014,05,20,15,41,20.60
2014,05,20,15,42,20.50
2014,05,20,15,43,20.50
2014,05,20,15,44,20.50
2014,05,20,15,45,20.60
2014,05,20,15,46,20.60
2014,05,20,15,47,20.50
2014,05,20,15,48,20.50
2014,05,20,15,49,20.40
2014,05,20,15,50,20.40
2014,05,20,15,51,20.40
2014,05,20,15,52,20.40
2014,05,20,15,53,20.40
2014,05,20,15,54,20.40
2014,05,20,15,55,20.40
2014,05,20,15,56,20.40
2014,05,20,15,57,20.40
2014,05,20,15,58,20.40
2014,05,20,15,59,20.40
2014,05,20,16,00,20.40
2014,05,20,16,01,20.40
2014,05,20,16,02,20.50
2014,05,20,16,03,20.60
2014,05,20,16,04,20.60
2014,05,20,16,05,20.60
2014,05,20,16,06,20.70
2014,05,20,16,07,20.70
2014,05,20,16,08,20.70
2014,05,20,16,09,20.80
2014,05,20,16,10,20.80
2014,05,20,16,11,20.80
2014,05,20,16,12,20.80
2014,05,20,16,13,20.90
2014,05,20,16,14,20.90
2014,05,20,16,15,20.90
2014,05,20,16,16,21.00
2014,05,20,16,17,21.10
2014,05,20,16,18,21.20
2014,05,20,16,19,21.30
2014,05,20,16,20,21.40
2014,05,20,16,21,21.40
2014,05,20,16,22,21.40
2014,05,20,16,23,21.40
2014,05,20,16,24,21.40
2014,05,20,16,25,21.40
2014,05,20,16,26,21.30
2014,05,20,16,27,21.30
2014,05,20,16,28,21.30
2014,05,20,16,29,21.20
2014,05,20,16,30,21.10
2014,05,20,16,31,21.10
2014,05,20,16,32,21.10
2014,05,20,16,33,21.10
2014,05,20,16,34,21.10
2014,05,20,16,35,21.10
2014,05,20,16,36,21.10
2014,05,20,16,37,21.00
2014,05,20,16,38,20.90
2014,05,20,16,39,20.80
2014,05,20,16,40,20.80
2014,05,20,16,41,20.80
2014,05,20,16,42,20.80
2014,05,20,16,43,20.80
2014,05,20,16,44,20.80
2014,05,20,16,45,20.70
2014,05,20,16,46,20.70
2014,05,20,16,47,20.70
2014,05,20,16,48,20.60
2014,05,20,16,49,20.60
2014,05,20,16,50,20.60
2014,05,20,16,51,20.60
2014,05,20,16,52,20.70
2014,05,20,16,53,20.80
2014,05,20,16,54,20.80
2014,05,20,16,55,20.90
2014,05,20,16,56,20.90
2014,05,20,16,57,21.00
2014,05,20,16,58,21.00
2014,05,20,16,59,21.10
2014,05,20,17,00,21.10
2014,05,20,17,01,21.20
2014,05,20,17,02,21.20
2014,05,20,17,03,21.30
2014,05,20,17,04,21.30
2014,05,20,17,05,21.30
2014,05,20,17,06,21.20
2014,05,20,17,07,21.20
2014,05,20,17,08,21.20
2014,05,20,17,09,21.10
2014,05,20,17,10,21.00
2014,05,20,17,11,21.00
2014,05,20,17,12,20.90
2014,05,20,17,13,21.00
2014,05,20,17,14,20.90
2014,05,20,17,15,20.90
2014,05,20,17,16,20.90
2014,05,20,17,17,21.00
2014,05,20,17,18,21.10
2014,05,20,17,19,21.20